Date String (YYYY-MM-DD hh:mm:ss) UTC,Instrument flags,Ambient pressure (hPa),Sample flow (lpm),Bypass flow (lpm),Sample temperature (°C),Ambient temperature (°C),ASC tube jacket temperature (°C),LED temperature (°C),Box temperature (°C),Sample RH (%),Span deviation,Mass concentration (μg/m³),Mass concentration (μg/m³),Mass concentration (μg/m³)
DateTimeUTC,F1_M11,P_M11,Q1_M11,Q2_M11,T1_M11,T2_M11,T3_M11,T4_M11,T5_M11,U1_M11,ZSPAN_M11,X2_M11,X0_M11,X1_M11
2022-04-19 13:00:00,,0818.4,5.00,0.00,23.7,22.8,00.0,32.8,25.5,18.1,-000.5,0012.10,0024.43,0009.53
2022-04-19 13:01:00,,0818.4,5.02,0.00,23.7,22.9,00.0,32.8,25.5,17.5,-000.7,0011.97,0024.35,0009.44
2022-04-19 13:02:00,,0818.4,5.00,0.00,23.8,22.9,00.0,32.8,25.5,16.7,-000.6,0011.81,0023.37,0009.21
2022-04-19 13:03:00,,0818.4,5.00,0.00,23.8,23.0,00.0,32.8,25.6,16.5,-000.3,0011.66,0023.88,0009.05
2022-04-19 13:04:00,,0818.4,5.00,0.00,23.8,23.0,00.0,32.8,25.6,17.4,-000.4,0011.69,0023.84,0009.05
2022-04-19 13:05:00,,0818.3,5.00,0.00,23.8,23.0,00.0,32.8,25.6,17.8,-000.7,0011.72,0023.99,0009.09
2022-04-19 13:06:00,,0818.3,5.00,0.00,23.8,23.0,00.0,32.8,25.6,18.2,-000.7,0011.82,0024.23,0009.18
2022-04-19 13:07:00,,0818.3,4.99,0.00,23.8,23.1,00.0,32.8,25.6,18.0,-000.6,0011.89,0023.18,0009.22
2022-04-19 13:08:00,,0818.3,5.00,0.00,23.8,23.1,00.0,32.8,25.6,18.1,-000.6,0011.84,0023.17,0009.24
2022-04-19 13:09:00,,0818.4,5.00,0.00,23.8,23.1,00.0,32.8,25.6,18.2,-000.4,0011.87,0024.13,0009.27
2022-04-19 13:10:00,,0818.3,5.00,0.00,23.8,23.1,00.0,32.8,25.6,18.2,-000.4,0011.87,0024.15,0009.28
2022-04-19 13:11:00,,0818.3,5.00,0.00,23.8,23.0,00.0,32.8,25.6,18.2,-000.2,0011.90,0026.21,0009.31
2022-04-19 13:12:00,,0818.4,5.01,0.00,23.8,23.0,00.0,32.8,25.5,18.3,-000.2,0012.02,0026.80,0009.44
2022-04-19 13:13:00,,0818.3,5.01,0.00,23.8,22.9,00.0,32.8,25.5,18.3,-000.4,0012.27,0027.22,0009.69
2022-04-19 13:14:00,,0818.3,5.00,0.00,23.7,22.9,00.0,32.8,25.5,18.2,-000.6,0012.47,0026.62,0009.88
2022-04-19 13:15:00,,0818.3,4.99,0.00,23.7,22.8,00.0,32.8,25.5,18.2,-000.5,0012.48,0027.26,0009.92
2022-04-19 13:16:00,,0818.3,4.99,0.00,23.7,22.8,00.0,32.8,25.5,18.2,-000.2,0012.41,0028.07,0009.91
2022-04-19 13:17:00,,0818.4,5.00,0.00,23.7,22.8,00.0,32.7,25.4,18.2,-000.2,0012.43,0028.18,0009.85
2022-04-19 13:18:00,,0818.3,5.01,0.00,23.7,22.7,00.0,32.7,25.4,18.2,-000.3,0012.40,0028.17,0009.87
2022-04-19 13:19:00,,0818.3,4.99,0.00,23.6,22.6,00.0,32.7,25.4,18.2,-000.3,0012.39,0028.19,0009.86
2022-04-19 13:20:00,,0818.3,5.00,0.00,23.6,22.6,00.0,32.7,25.3,18.1,-000.1,0012.38,0028.95,0009.82
2022-04-19 13:21:00,,0818.3,5.00,0.00,23.6,22.6,00.0,32.7,25.3,18.1,0000.0,0012.36,0028.91,0009.79
2022-04-19 13:22:00,,0818.2,4.99,0.00,23.6,22.6,00.0,32.7,25.3,18.1,0000.4,0012.35,0026.84,0009.74
2022-04-19 13:23:00,,0818.1,4.99,0.00,23.6,22.5,00.0,32.7,25.2,18.1,0000.5,0012.27,0025.59,0009.68
2022-04-19 13:24:00,,0818.1,5.02,0.00,23.5,22.4,00.0,32.6,25.2,18.0,0000.4,0012.19,0026.68,0009.61
2022-04-19 13:25:00,,0818.1,5.00,0.00,23.5,22.2,00.0,32.6,25.1,17.9,0000.2,0012.11,0027.24,0009.55
2022-04-19 13:26:00,,0818.2,4.99,0.00,23.4,22.2,00.0,32.6,25.1,17.9,0000.3,0012.05,0026.87,0009.50
2022-04-19 13:27:00,,0818.2,5.01,0.00,23.4,22.2,00.0,32.6,25.0,17.8,0000.1,0011.97,0026.20,0009.41
2022-04-19 13:28:00,,0818.2,5.00,0.00,23.3,22.2,00.0,32.5,25.0,17.8,-000.1,0011.89,0026.22,0009.33
2022-04-19 13:29:00,,0818.2,5.00,0.00,23.3,22.3,00.0,32.5,25.0,17.8,-000.2,0011.86,0026.56,0009.26
2022-04-19 13:30:00,,0818.2,5.00,0.00,23.3,22.2,00.0,32.5,25.0,17.8,0000.1,0011.80,0026.36,0009.19
2022-04-19 13:31:00,,0818.2,5.01,0.00,23.3,22.2,00.0,32.5,25.0,17.8,0000.1,0011.69,0024.94,0009.11
2022-04-19 13:32:00,,0818.2,5.00,0.00,23.3,22.2,00.0,32.5,25.0,17.8,0000.2,0011.64,0025.13,0009.06
2022-04-19 13:33:00,,0818.2,5.00,0.00,23.3,22.3,00.0,32.4,25.0,17.9,-000.0,0011.53,0024.93,0009.03
2022-04-19 13:34:00,,0818.2,5.00,0.00,23.3,22.3,00.0,32.4,25.0,18.1,0000.1,0011.55,0024.95,0009.03
2022-04-19 13:35:00,,0818.2,5.01,0.00,23.3,22.4,00.0,32.4,25.1,18.1,0000.4,0011.53,0024.38,0009.03
2022-04-19 13:36:00,,0818.3,5.00,0.00,23.3,22.4,00.0,32.4,25.1,17.9,0000.8,0011.48,0024.47,0009.00
2022-04-19 13:37:00,,0818.2,4.98,0.00,23.3,22.5,00.0,32.4,25.1,17.8,0000.7,0011.49,0024.47,0008.98
2022-04-19 13:38:00,,0818.0,5.00,0.00,23.3,22.6,00.0,32.4,25.2,17.9,0000.6,0011.53,0024.10,0008.99
2022-04-19 13:39:00,,0818.0,5.01,0.00,23.4,22.6,00.0,32.4,25.2,17.9,0000.3,0011.52,0025.55,0009.01
2022-04-19 13:40:00,,0818.0,5.00,0.00,23.4,22.7,00.0,32.4,25.3,17.9,0000.5,0011.47,0025.53,0009.03
2022-04-19 13:41:00,,0818.0,5.00,0.00,23.5,22.8,00.0,32.4,25.3,18.0,0000.8,0011.43,0027.40,0009.07
2022-04-19 13:42:00,,0818.0,5.00,0.00,23.5,22.8,00.0,32.4,25.4,18.0,0001.3,0011.46,0027.91,0009.14
2022-04-19 13:43:00,,0818.0,5.00,0.00,23.5,22.8,00.0,32.4,25.4,18.0,0001.2,0011.53,0027.58,0009.20
2022-04-19 13:44:00,,0818.1,4.99,0.00,23.6,22.9,00.0,32.4,25.4,18.0,0001.4,0011.63,0029.21,0009.25
2022-04-19 13:45:00,,0818.1,5.00,0.00,23.6,22.9,00.0,32.4,25.4,18.0,0001.6,0011.71,0029.71,0009.30
2022-04-19 13:46:00,,0818.1,5.00,0.00,23.6,22.9,00.0,32.5,25.4,17.9,0001.3,0011.71,0030.26,0009.32
2022-04-19 13:47:00,,0818.1,5.00,0.00,23.6,22.9,00.0,32.5,25.5,18.0,0000.8,0011.78,0030.51,0009.37
2022-04-19 13:48:00,,0818.0,5.00,0.00,23.6,22.9,00.0,32.5,25.5,18.2,0001.0,0011.84,0029.75,0009.48
2022-04-19 13:49:00,,0818.0,4.99,0.00,23.6,22.9,00.0,32.5,25.5,18.1,0001.4,0011.90,0030.39,0009.56
2022-04-19 13:50:00,,0818.0,5.00,0.00,23.7,23.0,00.0,32.5,25.5,17.9,0001.6,0011.92,0029.05,0009.59
2022-04-19 13:51:00,,0818.0,5.00,0.00,23.7,23.0,00.0,32.5,25.5,17.8,0001.6,0011.97,0029.21,0009.64
2022-04-19 13:52:00,,0818.0,5.00,0.00,23.6,23.0,00.0,32.5,25.5,17.8,0001.2,0012.10,0028.92,0009.68
2022-04-19 13:53:00,,0818.0,5.00,0.00,23.7,23.0,00.0,32.5,25.5,17.9,0000.7,0012.17,0028.96,0009.71
2022-04-19 13:54:00,,0818.0,5.00,0.00,23.7,23.0,00.0,32.5,25.5,17.9,0001.0,0012.18,0029.24,0009.74
2022-04-19 13:55:00,,0818.0,5.01,0.00,23.7,23.0,00.0,32.6,25.6,18.1,0000.9,0012.20,0028.23,0009.78
2022-04-19 13:56:00,,0818.0,5.00,0.00,23.7,23.0,00.0,32.6,25.6,18.0,0000.7,0012.25,0028.37,0009.81
2022-04-19 13:57:00,,0818.0,5.01,0.00,23.7,23.0,00.0,32.6,25.6,18.0,0001.3,0012.33,0029.21,0009.86
2022-04-19 13:58:00,,0818.0,5.00,0.00,23.7,23.0,00.0,32.6,25.6,18.0,0002.0,0012.40,0028.99,0009.90
2022-04-19 13:59:00,,0818.0,5.01,0.00,23.7,23.0,00.0,32.6,25.6,18.1,0002.2,0012.41,0029.78,0009.88
